Manhattan, KS

2:54 PM CST on December 05, 2019 (GMT -0600)
Manhattan Regional

Weather History for KMHK - October, 2019

Change the Weather History Date:

Monday, October 14, 2019

  Actual Average Record
Temperature  
Mean Temperature 57 °F 56 °F  
Max Temperature 78 °F 69 °F 84 °F (1996)
Min Temperature 35 °F 43 °F 26 °F (2006)
Degree Days  
Heating Degree Days 8 10  
Month to date heating degree days 122 111  
Since 1 July heating degree days 123 181  
Cooling Degree Days 0 1  
Month to date cooling degree days 13 21  
Year to date cooling degree days 1608 1358  
Growing Degree Days 6 (Base 50)    
Moisture  
Dew Point 45 °F    
Average Humidity 68    
Maximum Humidity 100    
Minimum Humidity 35    
Precipitation  
Precipitation 0.00 in 0.07 in 1.07 in (2007)
Month to date precipitation 2.60 1.10  
Year to date precipitation 40.58 28.81  
Sea Level Pressure  
Sea Level Pressure 29.91 in    
Wind  
Wind Speed 6 mph (SSE)    
Max Wind Speed 21 mph    
Max Gust Speed 29 mph    
Visibility 10 miles    
Events      
T = Trace of Precipitation, MM = Missing Value Source: NWS Daily Summary

Daily Weather History Graph

Daily Weather History Graph

Search for Another Location

Airport or City:

Astronomy

Oct. 14, 2019 Rise Set
Actual Time 7:35 AM CDT 6:49 PM CDT
Civil Twilight 7:08 AM CDT 7:16 PM CDT
Nautical Twilight 6:37 AM CDT 7:47 PM CDT
Astronomical Twilight 6:06 AM CDT 8:18 PM CDT
Moon 7:40 PM CDT (10/14) 8:08 AM CDT (10/14)
Length of Visible Light 12h 08m
Length of Day
11h 14m
Full, 99% of the Moon is Illuminated
Oct 14
Full
Oct 21
Last Quarter
Oct 27
New
Nov 4
First Quarter
Nov 12
Full

Hourly Weather History & Observations

Time (CDT) Temp. Windchill Dew Point Humidity Pressure Visibility Wind Dir Wind Speed Gust Speed Precip Events Conditions
12:52 AM 36.0 °F - 35.1 °F 97% 30.02 in 10.0 mi Calm Calm - N/A   Clear
1:52 AM 37.9 °F - 36.0 °F 93% 30.01 in 10.0 mi Calm Calm - N/A   Clear
2:52 AM 37.0 °F - 36.0 °F 96% 30.02 in 10.0 mi Calm Calm - N/A   Clear
3:52 AM 36.0 °F 33.3 °F 35.1 °F 97% 30.01 in 10.0 mi NNE 3.5 mph - N/A   Clear
4:52 AM 36.0 °F - 34.0 °F 93% 30.01 in 10.0 mi Calm Calm - N/A   Clear
5:52 AM 35.1 °F - 34.0 °F 96% 30.00 in 10.0 mi Calm Calm - N/A   Clear
6:52 AM 37.0 °F - 36.0 °F 96% 30.01 in 10.0 mi Calm Calm - N/A   Clear
7:52 AM 37.9 °F - 36.0 °F 93% 30.02 in 10.0 mi Calm Calm - N/A   Clear
10:52 AM 64.9 °F - 48.9 °F 56% 29.97 in 10.0 mi Variable 4.6 mph - N/A   Clear
11:52 AM 73.0 °F - 48.0 °F 41% 29.94 in 10.0 mi South 11.5 mph - N/A   Clear
12:52 PM 75.0 °F - 48.0 °F 38% 29.91 in 10.0 mi South 15.0 mph 25.3 mph N/A   Clear
1:52 PM 75.9 °F - 48.9 °F 38% 29.88 in 10.0 mi South 17.3 mph 27.6 mph N/A   Clear
2:52 PM 77.0 °F - 48.0 °F 36% 29.84 in 10.0 mi South 17.3 mph 28.8 mph N/A   Clear
3:52 PM 78.1 °F - 48.9 °F 36% 29.81 in 10.0 mi South 15.0 mph 24.2 mph N/A   Clear
4:52 PM 77.0 °F - 50.0 °F 39% 29.80 in 10.0 mi SSE 16.1 mph 24.2 mph N/A   Clear
5:52 PM 75.0 °F - 51.1 °F 43% 29.79 in 10.0 mi SSE 12.7 mph - N/A   Clear
6:52 PM 70.0 °F - 51.1 °F 51% 29.80 in 10.0 mi SE 6.9 mph - N/A   Clear
7:52 PM 64.0 °F - 51.1 °F 63% 29.84 in 9.0 mi Calm Calm - N/A   Clear
8:52 PM 60.1 °F - 51.1 °F 72% 29.83 in 10.0 mi Calm Calm - N/A   Clear
9:52 PM 59.0 °F - 51.1 °F 75% 29.83 in 10.0 mi Calm Calm - N/A   Clear
10:52 PM 63.0 °F - 54.0 °F 72% 29.83 in 10.0 mi South 5.8 mph - N/A   Clear
11:52 PM 61.0 °F - 54.0 °F 78% 29.81 in 10.0 mi South 4.6 mph - N/A   Clear